NOAA 16 DEB, 41500

Orbit data source: Space-Track

NOAA 16 DEB, 41500 is space debris in SSO originally from a launch on Thu, 21 Sep 2000 UTC launched from the Air Force Western Test Range (AFWTR). Debris objects in space refer to the collection of defunct objects orbiting the Earth. Examples of debris include non-operational satellites, rocket bodies, and fragments generated from explosions, collisions, or faulty payload assembly.

Loading next visibility...
Identifier
41500, 2000-055LY
Orbit
SSO
Country
Flag of USUS
Related business
Manufacturer
Unknown
Mission
Spacecraft
Bus & Motor
Unknown
Mass
Unknown
Launch date (UTC)
2000-09-21 (25 years ago)
Launch vehicle
Unknown
Launch site
Air Force Western Test Range (AFWTR)
Object type
Payload
Rocket body
Debris
Shape & HBR
Unknown shape, 0.1 m
Radar Cross Section
Small (<0.1 m²)

Expand to show TLE details & history
Last TLE update: 20 hours ago

TLE from 20 hours ago
0 NOAA 16 DEB
1 41500U 00055LY  25350.06836694  .00006063  00000-0  15543-2 0  9992
2 41500  99.0143 208.8027 0031504 334.4109  25.5523 14.50412409509053
Epoch: 2025-12-16T01:38Z
TLE epoch observation values (Epoch: 2025-12-16T01:38:26.903Z)
Latitude
0.00001°
Longitude
99.23272°
Altitude
707.07 km
Speed
7.513 km/s
True Right ascension
13h 55m 12s
True Declination
0° 00' 00"
Sunlit
Object was in daylight at epoch
Visualization orbit readout
Latitude
Unknown
Longitude
Unknown
Altitude
Unknown
Speed
Unknown
Apparent Right ascension
Unknown
Apparent Declination
Unknown
Sunlit
N/A
Visualization observer readout
Local Sidereal Time
20:17:17
Azimuth
Unknown
Elevation
Unknown
Doppler factor
Unknown
Orbital elements
Apogee altitude
743.801 km
Perigee altitude
699.068 km
Semi-major axis
7,099.572 km
Eccentricity
0.00315
Inclination
99.0143°
RAAN
208.8027°
Arg. of periapsis
334.4109°
True anomaly
25.70857°
Mean anomaly
25.5523°
Eccentric anomaly
25.63038°
Mean motion
3.62823 °/min
Orbital period
99.22 mins
BSTAR
0.0015543
Loading maneuver chart data...
Computing Atmospheric mass density...
Loading historical data...
Loading historical data...
Loading historical data...
Loading historical data...
Loading historical data...
Loading historical data...
Loading historical data...

Documentation

Showing up to 5 results
|